| time (UTC) | temp F | wind direction | speed MPH | gust MPH | rain 1hr in | rain 24hr in | rain mn in | humidity % | barometer mb |
| 20260904072011 | 53 | 313 | 0.0 | 0.0 | 0.00 | 0.24 | 0.00 | 89 | 998.1 |
| 20260904071553 | 53 | 313 | 0.0 | 0.0 | 0.00 | 0.24 | 0.00 | 89 | 998.0 |
| 20260904071057 | 53 | 313 | 0.0 | 0.0 | 0.00 | 0.24 | 0.00 | 88 | 997.9 |
| 20260904070556 | 53 | 313 | 0.0 | 0.0 | 0.00 | 0.24 | 0.00 | 88 | 997.9 |
| 20260904070040 | 53 | 313 | 0.0 | 0.0 | 0.00 | 0.24 | 0.24 | 88 | 997.9 |
| 20260904065533 | 53 | 313 | 0.0 | 0.0 | 0.00 | 0.24 | 0.24 | 88 | 997.9 |
| 20260904065038 | 54 | 313 | 0.0 | 0.0 | 0.00 | 0.24 | 0.24 | 88 | 998.0 |
| 20260904064607 | 54 | 313 | 0.0 | 0.0 | 0.00 | 0.24 | 0.24 | 88 | 998.0 |
| 20260904064004 | 54 | 313 | 0.0 | 0.0 | 0.00 | 0.24 | 0.24 | 88 | 997.9 |
| 20260904063520 | 54 | 313 | 0.0 | 0.0 | 0.00 | 0.24 | 0.24 | 88 | 997.9 |
| 20260904063044 | 54 | 313 | 0.0 | 0.0 | 0.00 | 0.24 | 0.24 | 88 | 997.9 |
| 20260904062542 | 54 | 313 | 0.0 | 0.0 | 0.00 | 0.24 | 0.24 | 88 | 997.8 |
| 20260904062051 | 54 | 313 | 0.0 | 0.0 | 0.00 | 0.24 | 0.24 | 88 | 997.8 |
| 20260904061527 | 54 | 313 | 0.0 | 0.0 | 0.00 | 0.24 | 0.24 | 88 | 997.8 |
| 20260904061016 | 54 | 313 | 0.0 | 0.0 | 0.00 | 0.24 | 0.24 | 88 | 997.8 |
| 20260904060524 | 54 | 313 | 0.0 | 0.0 | 0.00 | 0.24 | 0.24 | 88 | 997.7 |
| 20260904060120 | 54 | 313 | 0.0 | 0.0 | 0.00 | 0.25 | 0.24 | 88 | 997.8 |
| 20260904055502 | 54 | 313 | 0.0 | 0.0 | 0.00 | 0.25 | 0.24 | 88 | 997.8 |
| 20260904055006 | 54 | 313 | 0.0 | 0.0 | 0.00 | 0.25 | 0.24 | 88 | 997.8 |
| 20260904054548 | 54 | 313 | 0.0 | 0.0 | 0.00 | 0.25 | 0.24 | 88 | 997.9 |
| 20260904054048 | 55 | 313 | 0.0 | 0.0 | 0.00 | 0.25 | 0.24 | 88 | 997.9 |
| 20260904053556 | 55 | 313 | 0.0 | 0.0 | 0.00 | 0.25 | 0.24 | 88 | 997.9 |
| 20260904053110 | 55 | 313 | 0.0 | 0.0 | 0.00 | 0.25 | 0.24 | 88 | 997.8 |
| 20260904052542 | 55 | 313 | 0.0 | 0.0 | 0.00 | 0.25 | 0.24 | 88 | 997.9 |
| 20260904052048 | 55 | 313 | 0.0 | 0.0 | 0.00 | 0.25 | 0.24 | 88 | 997.9 |
| 20260904051529 | 55 | 313 | 0.0 | 0.0 | 0.00 | 0.25 | 0.24 | 88 | 997.8 |
| 20260904051031 | 55 | 313 | 0.0 | 0.0 | 0.00 | 0.25 | 0.24 | 88 | 997.9 |
| 20260904050525 | 55 | 313 | 0.0 | 0.0 | 0.00 | 0.25 | 0.24 | 88 | 998.0 |
| 20260904050036 | 55 | 313 | 0.0 | 0.0 | 0.00 | 0.25 | 0.24 | 88 | 998.0 |
| 20260904045542 | 55 | 313 | 0.0 | 0.0 | 0.00 | 0.25 | 0.24 | 88 | 997.9 |
| 20260904045050 | 55 | 313 | 0.0 | 0.0 | 0.00 | 0.25 | 0.24 | 88 | 997.9 |
| 20260904044515 | 55 | 313 | 0.0 | 1.0 | 0.00 | 0.25 | 0.24 | 88 | 998.0 |
| 20260904044021 | 55 | 313 | 0.0 | 1.0 | 0.00 | 0.25 | 0.24 | 88 | 998.0 |
| 20260904043529 | 55 | 313 | 0.0 | 2.0 | 0.00 | 0.25 | 0.24 | 88 | 998.0 |
| 20260904043014 | 55 | 313 | 0.0 | 2.0 | 0.00 | 0.25 | 0.24 | 88 | 998.0 |
| 20260904042520 | 55 | 313 | 0.0 | 2.0 | 0.00 | 0.25 | 0.24 | 88 | 997.9 |
| 20260904042028 | 55 | 279 | 0.0 | 1.0 | 0.00 | 0.25 | 0.24 | 88 | 997.8 |
| 20260904041557 | 55 | 279 | 0.0 | 0.0 | 0.00 | 0.25 | 0.24 | 88 | 997.8 |
| 20260904041059 | 55 | 278 | 0.0 | 3.0 | 0.00 | 0.25 | 0.24 | 88 | 997.9 |
| 20260904040503 | 55 | 278 | 0.0 | 4.0 | 0.00 | 0.25 | 0.24 | 88 | 997.8 |
| 20260904040046 | 55 | 252 | 1.0 | 4.0 | 0.00 | 0.25 | 0.24 | 88 | 997.9 |
| 20260904035548 | 55 | 24 | 0.0 | 9.0 | 0.00 | 0.25 | 0.24 | 88 | 997.8 |
| 20260904035055 | 55 | 134 | 0.0 | 9.0 | 0.00 | 0.25 | 0.24 | 88 | 997.8 |
| 20260904034529 | 55 | 80 | 0.0 | 0.0 | 0.00 | 0.25 | 0.24 | 88 | 997.8 |
| 20260904034042 | 55 | 80 | 0.0 | 1.0 | 0.00 | 0.25 | 0.24 | 88 | 997.8 |
| 20260904033552 | 55 | 355 | 0.0 | 1.0 | 0.00 | 0.25 | 0.24 | 88 | 997.6 |
| 20260904033026 | 55 | 355 | 0.0 | 2.0 | 0.00 | 0.25 | 0.24 | 87 | 997.6 |
| 20260904032537 | 56 | 355 | 0.0 | 1.0 | 0.00 | 0.25 | 0.24 | 87 | 997.6 |
| 20260904032051 | 56 | 355 | 0.0 | 1.0 | 0.00 | 0.25 | 0.24 | 87 | 997.6 |
| 20260904031525 | 56 | 355 | 0.0 | 0.0 | 0.00 | 0.25 | 0.24 | 87 | 997.5 |
| 20260904031033 | 56 | 355 | 0.0 | 2.0 | 0.00 | 0.25 | 0.24 | 87 | 997.4 |
| 20260904030541 | 56 | 355 | 0.0 | 3.0 | 0.00 | 0.25 | 0.24 | 87 | 997.4 |
| 20260904030007 | 56 | 355 | 0.0 | 3.0 | 0.00 | 0.25 | 0.24 | 87 | 997.4 |
| 20260904025522 | 56 | 247 | 0.0 | 3.0 | 0.00 | 0.25 | 0.24 | 87 | 997.3 |
| 20260904025030 | 56 | 244 | 0.0 | 5.0 | 0.00 | 0.25 | 0.24 | 87 | 997.4 |
| 20260904024619 | 56 | 254 | 0.0 | 5.0 | 0.00 | 0.25 | 0.24 | 87 | 997.4 |
| 20260904024002 | 56 | 94 | 0.0 | 6.0 | 0.00 | 0.25 | 0.24 | 87 | 997.4 |
| 20260904023511 | 56 | 144 | 0.0 | 2.0 | 0.00 | 0.25 | 0.24 | 87 | 997.2 |
| 20260904023053 | 56 | 144 | 0.0 | 0.0 | 0.00 | 0.25 | 0.24 | 86 | 997.3 |
| 20260904022552 | 56 | 144 | 0.0 | 0.0 | 0.00 | 0.25 | 0.24 | 86 | 997.1 |
| 20260904022059 | 56 | 144 | 0.0 | 0.0 | 0.00 | 0.25 | 0.24 | 86 | 997.2 |
| 20260904021535 | 56 | 144 | 0.0 | 0.0 | 0.00 | 0.25 | 0.24 | 86 | 997.2 |
| 20260904021045 | 56 | 144 | 0.0 | 0.0 | 0.00 | 0.25 | 0.24 | 86 | 997.1 |
| 20260904020601 | 56 | 144 | 0.0 | 1.0 | 0.00 | 0.25 | 0.24 | 85 | 997.1 |
| 20260904020023 | 56 | 144 | 0.0 | 1.0 | 0.00 | 0.25 | 0.24 | 85 | 997.1 |
| 20260904015529 | 57 | 144 | 0.0 | 1.0 | 0.00 | 0.25 | 0.24 | 85 | 997.1 |
| 20260904015033 | 57 | 144 | 0.0 | 0.0 | 0.00 | 0.25 | 0.24 | 85 | 997.1 |
| 20260904014501 | 57 | 144 | 0.0 | 2.0 | 0.00 | 0.25 | 0.24 | 85 | 997.1 |
| 20260904014022 | 57 | 144 | 0.0 | 2.0 | 0.00 | 0.25 | 0.24 | 84 | 997.0 |
| 20260904013523 | 57 | 144 | 0.0 | 2.0 | 0.00 | 0.25 | 0.24 | 84 | 997.1 |
| 20260904013051 | 57 | 144 | 0.0 | 1.0 | 0.00 | 0.25 | 0.24 | 84 | 997.1 |
| 20260904012600 | 57 | 144 | 0.0 | 2.0 | 0.00 | 0.25 | 0.24 | 84 | 997.1 |
| 20260904012104 | 57 | 144 | 1.0 | 4.0 | 0.00 | 0.25 | 0.24 | 83 | 997.1 |
| 20260904011538 | 57 | 142 | 1.0 | 4.0 | 0.00 | 0.25 | 0.24 | 83 | 997.2 |
| 20260904011048 | 58 | 339 | 0.0 | 7.0 | 0.00 | 0.25 | 0.24 | 83 | 997.3 |
| 20260904010553 | 58 | 203 | 1.0 | 5.0 | 0.00 | 0.25 | 0.24 | 83 | 997.2 |
| 20260904010025 | 58 | 252 | 0.0 | 4.0 | 0.00 | 0.25 | 0.24 | 83 | 997.1 |
| 20260904005533 | 58 | 203 | 0.0 | 4.0 | 0.00 | 0.25 | 0.24 | 82 | 997.1 |
| 20260904005039 | 58 | 225 | 0.0 | 3.0 | 0.00 | 0.25 | 0.24 | 82 | 997.2 |
| 20260904004510 | 58 | 225 | 0.0 | 5.0 | 0.00 | 0.25 | 0.24 | 81 | 997.2 |
| 20260904004027 | 58 | 186 | 2.0 | 5.0 | 0.00 | 0.25 | 0.24 | 80 | 997.3 |
| 20260904003532 | 59 | 200 | 1.0 | 3.0 | 0.00 | 0.25 | 0.24 | 80 | 997.2 |
| 20260904003109 | 59 | 139 | 0.0 | 3.0 | 0.00 | 0.25 | 0.24 | 79 | 997.2 |
| 20260904002512 | 59 | 109 | 1.0 | 3.0 | 0.00 | 0.25 | 0.24 | 80 | 997.2 |
| 20260904002013 | 59 | 255 | 0.0 | 5.0 | 0.00 | 0.25 | 0.24 | 80 | 997.2 |
| 20260904001535 | 59 | 220 | 0.0 | 7.0 | 0.00 | 0.25 | 0.24 | 81 | 997.3 |
| 20260904001045 | 59 | 219 | 4.0 | 7.0 | 0.00 | 0.25 | 0.24 | 81 | 997.3 |
| 20260904000551 | 59 | 229 | 3.0 | 7.0 | 0.00 | 0.25 | 0.24 | 81 | 997.3 |
| 20260904000015 | 58 | 158 | 1.0 | 4.0 | 0.00 | 0.25 | 0.24 | 83 | 997.4 |
| 20260903235529 | 58 | 5 | 0.0 | 4.0 | 0.00 | 0.25 | 0.24 | 84 | 997.4 |
| 20260903235037 | 58 | 338 | 0.0 | 4.0 | 0.00 | 0.25 | 0.24 | 84 | 997.4 |
| 20260903234501 | 59 | 263 | 1.0 | 4.0 | 0.00 | 0.25 | 0.24 | 84 | 997.4 |
| 20260903234008 | 59 | 169 | 0.0 | 6.0 | 0.01 | 0.25 | 0.24 | 84 | 997.3 |
| 20260903233515 | 59 | 169 | 2.0 | 6.0 | 0.01 | 0.25 | 0.24 | 84 | 997.4 |
| 20260903233118 | 58 | 22 | 1.0 | 2.0 | 0.01 | 0.25 | 0.24 | 86 | 997.3 |
| 20260903232501 | 58 | 21 | 0.0 | 2.0 | 0.01 | 0.25 | 0.24 | 86 | 997.4 |
| 20260903232005 | 58 | 20 | 0.0 | 2.0 | 0.01 | 0.25 | 0.24 | 86 | 997.3 |
| 20260903231549 | 58 | 21 | 0.0 | 2.0 | 0.01 | 0.25 | 0.24 | 86 | 997.3 |
| 20260903231056 | 57 | 21 | 0.0 | 2.0 | 0.02 | 0.25 | 0.24 | 86 | 997.3 |
| 20260903230605 | 57 | 20 | 0.0 | 2.0 | 0.02 | 0.25 | 0.24 | 87 | 997.4 |
| 20260903225547 | 56 | 355 | 0.0 | 3.0 | 0.02 | 0.33 | 0.24 | 86 | 997.5 |
| 20260903225055 | 57 | 355 | 1.0 | 4.0 | 0.02 | 0.33 | 0.24 | 86 | 997.5 |
| 20260903224541 | 57 | 261 | 0.0 | 5.0 | 0.02 | 0.33 | 0.24 | 85 | 997.7 |
| 20260903224039 | 56 | 201 | 0.0 | 10.0 | 0.01 | 0.32 | 0.23 | 85 | 997.8 |
| 20260903223545 | 57 | 195 | 3.0 | 10.0 | 0.01 | 0.32 | 0.23 | 85 | 997.8 |
| 20260903223030 | 57 | 202 | 2.0 | 7.0 | 0.01 | 0.32 | 0.23 | 85 | 997.7 |
| 20260903222532 | 57 | 166 | 1.0 | 8.0 | 0.01 | 0.32 | 0.23 | 85 | 997.7 |
| 20260903222039 | 57 | 186 | 2.0 | 8.0 | 0.01 | 0.32 | 0.23 | 85 | 997.8 |
| 20260903221505 | 57 | 216 | 1.0 | 8.0 | 0.01 | 0.32 | 0.23 | 85 | 997.9 |
| 20260903221020 | 57 | 188 | 0.0 | 7.0 | 0.00 | 0.31 | 0.22 | 85 | 997.8 |
| 20260903220534 | 57 | 188 | 1.0 | 7.0 | 0.00 | 0.31 | 0.22 | 85 | 997.7 |
| 20260903220059 | 57 | 190 | 0.0 | 4.0 | 0.00 | 0.31 | 0.22 | 86 | 997.7 |
| 20260903215505 | 56 | 240 | 2.0 | 4.0 | 0.00 | 0.31 | 0.22 | 86 | 997.7 |
| 20260903215018 | 56 | 110 | 0.0 | 5.0 | 0.00 | 0.31 | 0.22 | 86 | 997.6 |
| 20260903214551 | 56 | 132 | 0.0 | 6.0 | 0.00 | 0.31 | 0.22 | 86 | 997.6 |
| 20260903214057 | 56 | 164 | 1.0 | 8.0 | 0.00 | 0.31 | 0.22 | 86 | 997.8 |
| 20260903213503 | 56 | 196 | 2.0 | 8.0 | 0.01 | 0.31 | 0.22 | 86 | 997.6 |
| 20260903213051 | 56 | 360 | 1.0 | 5.0 | 0.01 | 0.31 | 0.22 | 86 | 997.6 |
| 20260903212546 | 56 | 200 | 2.0 | 5.0 | 0.02 | 0.31 | 0.22 | 87 | 997.7 |
| 20260903212055 | 56 | 175 | 2.0 | 5.0 | 0.03 | 0.31 | 0.22 | 87 | 997.7 |
| 20260903211530 | 56 | 157 | 2.0 | 6.0 | 0.05 | 0.31 | 0.22 | 87 | 997.7 |
| 20260903211034 | 56 | 166 | 2.0 | 6.0 | 0.05 | 0.31 | 0.22 | 87 | 997.8 |
| 20260903210541 | 56 | 178 | 2.0 | 11.0 | 0.05 | 0.31 | 0.22 | 86 | 997.7 |
| 20260903210020 | 56 | 171 | 2.0 | 11.0 | 0.06 | 0.32 | 0.22 | 86 | 997.7 |
| 20260903205530 | 56 | 123 | 1.0 | 6.0 | 0.06 | 0.32 | 0.22 | 86 | 997.9 |
| 20260903205032 | 56 | 184 | 1.0 | 6.0 | 0.06 | 0.32 | 0.22 | 86 | 997.8 |
| 20260903204559 | 56 | 197 | 0.0 | 3.0 | 0.06 | 0.32 | 0.22 | 85 | 997.8 |
| 20260903204017 | 56 | 198 | 0.0 | 4.0 | 0.06 | 0.32 | 0.22 | 84 | 997.8 |
| 20260903203522 | 56 | 197 | 0.0 | 5.0 | 0.05 | 0.31 | 0.21 | 83 | 997.7 |
| 20260903203051 | 57 | 173 | 2.0 | 9.0 | 0.05 | 0.31 | 0.21 | 82 | 997.8 |
| 20260903202556 | 57 | 175 | 3.0 | 9.0 | 0.04 | 0.30 | 0.20 | 82 | 997.9 |
| 20260903202101 | 58 | 195 | 2.0 | 8.0 | 0.03 | 0.28 | 0.19 | 82 | 997.8 |
| 20260903201535 | 59 | 223 | 2.0 | 9.0 | 0.01 | 0.27 | 0.17 | 82 | 997.6 |
| 20260903201044 | 59 | 198 | 2.0 | 7.0 | 0.01 | 0.27 | 0.17 | 82 | 997.6 |
| 20260903200551 | 59 | 186 | 2.0 | 7.0 | 0.01 | 0.27 | 0.17 | 81 | 997.6 |
| 20260903200025 | 60 | 198 | 2.0 | 15.0 | 0.00 | 0.33 | 0.16 | 80 | 997.6 |
| 20260903195530 | 60 | 207 | 2.0 | 15.0 | 0.00 | 0.33 | 0.16 | 80 | 997.6 |
| 20260903195037 | 61 | 171 | 2.0 | 11.0 | 0.00 | 0.33 | 0.16 | 79 | 997.6 |
| 20260903194553 | 61 | 226 | 4.0 | 11.0 | 0.00 | 0.33 | 0.16 | 78 | 997.6 |
| 20260903194059 | 61 | 221 | 1.0 | 7.0 | 0.00 | 0.33 | 0.16 | 80 | 997.5 |
| 20260903193606 | 61 | 169 | 3.0 | 7.0 | 0.00 | 0.33 | 0.16 | 79 | 997.5 |
| 20260903193044 | 61 | 174 | 2.0 | 9.0 | 0.00 | 0.33 | 0.16 | 81 | 997.5 |
| 20260903192545 | 61 | 178 | 3.0 | 9.0 | 0.00 | 0.33 | 0.16 | 80 | 997.6 |
| 20260903192050 | 60 | 237 | 1.0 | 7.0 | 0.00 | 0.33 | 0.16 | 81 | 997.5 |
| 20260903191527 | 60 | 160 | 2.0 | 12.0 | 0.00 | 0.33 | 0.16 | 80 | 997.6 |
| 20260903191031 | 60 | 182 | 3.0 | 11.0 | 0.00 | 0.33 | 0.16 | 80 | 997.6 |
| 20260903190537 | 60 | 254 | 2.0 | 12.0 | 0.00 | 0.33 | 0.16 | 81 | 997.6 |
| 20260903190000 | 59 | 235 | 4.0 | 11.0 | 0.00 | 0.43 | 0.16 | 81 | 997.5 |
| 20260903185507 | 59 | 214 | 1.0 | 8.0 | 0.00 | 0.43 | 0.16 | 82 | 997.5 |
| 20260903185013 | 59 | 177 | 2.0 | 8.0 | 0.00 | 0.43 | 0.16 | 82 | 997.6 |
| 20260903184541 | 59 | 256 | 3.0 | 8.0 | 0.00 | 0.43 | 0.16 | 83 | 997.7 |
| 20260903184043 | 59 | 199 | 3.0 | 9.0 | 0.00 | 0.43 | 0.16 | 83 | 997.7 |
| 20260903183550 | 59 | 175 | 3.0 | 17.0 | 0.00 | 0.43 | 0.16 | 82 | 997.8 |
| 20260903183029 | 59 | 184 | 8.0 | 17.0 | 0.00 | 0.43 | 0.16 | 83 | 997.7 |
| 20260903182539 | 59 | 122 | 3.0 | 10.0 | 0.00 | 0.43 | 0.16 | 84 | 997.8 |
| 20260903182045 | 59 | 132 | 3.0 | 10.0 | 0.00 | 0.43 | 0.16 | 83 | 997.7 |
| 20260903181517 | 59 | 175 | 3.0 | 10.0 | 0.00 | 0.43 | 0.16 | 84 | 997.8 |
| 20260903181024 | 58 | 174 | 2.0 | 10.0 | 0.00 | 0.43 | 0.16 | 85 | 997.7 |
| 20260903180528 | 58 | 252 | 3.0 | 10.0 | 0.00 | 0.43 | 0.16 | 85 | 997.6 |
| 20260903180100 | 58 | 174 | 4.0 | 16.0 | 0.00 | 0.53 | 0.16 | 85 | 997.5 |
| 20260903175502 | 58 | 194 | 3.0 | 17.0 | 0.00 | 0.53 | 0.16 | 86 | 997.4 |
| 20260903175010 | 58 | 149 | 2.0 | 12.0 | 0.00 | 0.53 | 0.16 | 87 | 997.6 |
| 20260903174549 | 58 | 126 | 4.0 | 12.0 | 0.00 | 0.53 | 0.16 | 87 | 997.7 |
| 20260903174057 | 58 | 186 | 1.0 | 5.0 | 0.00 | 0.53 | 0.16 | 88 | 997.5 |
| 20260903173506 | 58 | 238 | 1.0 | 12.0 | 0.00 | 0.53 | 0.16 | 88 | 997.6 |
| 20260903173043 | 58 | 113 | 3.0 | 12.0 | 0.00 | 0.53 | 0.16 | 89 | 997.5 |
| 20260903172548 | 57 | 194 | 1.0 | 9.0 | 0.00 | 0.53 | 0.16 | 89 | 997.5 |
| 20260903172055 | 56 | 220 | 2.0 | 8.0 | 0.00 | 0.53 | 0.16 | 89 | 997.5 |
| 20260903171528 | 56 | 194 | 0.0 | 6.0 | 0.00 | 0.53 | 0.16 | 89 | 997.5 |
| 20260903171035 | 56 | 163 | 1.0 | 8.0 | 0.00 | 0.53 | 0.16 | 89 | 997.5 |
| 20260903170546 | 56 | 191 | 2.0 | 8.0 | 0.00 | 0.53 | 0.16 | 89 | 997.5 |
| 20260903170011 | 56 | 226 | 0.0 | 6.0 | 0.01 | 0.55 | 0.16 | 89 | 997.5 |
| 20260903165512 | 56 | 147 | 1.0 | 6.0 | 0.01 | 0.55 | 0.16 | 90 | 997.6 |
| 20260903165026 | 56 | 181 | 1.0 | 4.0 | 0.01 | 0.55 | 0.16 | 90 | 997.8 |
| 20260903164554 | 56 | 203 | 1.0 | 10.0 | 0.01 | 0.55 | 0.16 | 90 | 997.9 |
| 20260903164103 | 55 | 154 | 4.0 | 10.0 | 0.01 | 0.55 | 0.16 | 90 | 997.9 |
| 20260903163509 | 56 | 234 | 2.0 | 5.0 | 0.01 | 0.55 | 0.16 | 90 | 998.0 |
| 20260903163047 | 55 | 46 | 0.0 | 5.0 | 0.01 | 0.55 | 0.16 | 90 | 998.0 |
| 20260903162554 | 55 | 171 | 0.0 | 5.0 | 0.01 | 0.55 | 0.16 | 91 | 998.0 |
| 20260903162100 | 54 | 207 | 1.0 | 8.0 | 0.02 | 0.55 | 0.16 | 90 | 998.0 |
| 20260903161528 | 54 | 212 | 1.0 | 8.0 | 0.02 | 0.55 | 0.16 | 90 | 998.2 |
| 20260903161032 | 54 | 211 | 0.0 | 3.0 | 0.03 | 0.55 | 0.16 | 90 | 998.0 |
| 20260903160540 | 54 | 211 | 1.0 | 3.0 | 0.04 | 0.55 | 0.16 | 90 | 998.2 |
| 20260903160003 | 54 | 217 | 0.0 | 6.0 | 0.03 | 0.54 | 0.15 | 90 | 998.1 |
| 20260903155516 | 54 | 200 | 0.0 | 3.0 | 0.03 | 0.54 | 0.15 | 90 | 998.0 |
| 20260903155023 | 54 | 200 | 0.0 | 4.0 | 0.03 | 0.54 | 0.15 | 90 | 998.0 |
| 20260903154556 | 54 | 200 | 0.0 | 4.0 | 0.04 | 0.54 | 0.15 | 90 | 998.0 |
| 20260903154048 | 54 | 158 | 0.0 | 8.0 | 0.04 | 0.54 | 0.15 | 90 | 998.0 |
| 20260903153557 | 54 | 157 | 1.0 | 9.0 | 0.04 | 0.54 | 0.15 | 90 | 998.1 |
| 20260903153037 | 54 | 199 | 1.0 | 9.0 | 0.04 | 0.54 | 0.15 | 90 | 998.0 |
| 20260903152541 | 53 | 168 | 1.0 | 9.0 | 0.04 | 0.54 | 0.15 | 90 | 997.9 |
| 20260903152049 | 53 | 180 | 2.0 | 12.0 | 0.04 | 0.53 | 0.14 | 90 | 997.8 |
| 20260903151521 | 54 | 147 | 3.0 | 12.0 | 0.04 | 0.53 | 0.14 | 90 | 997.7 |
| 20260903151029 | 53 | 167 | 3.0 | 12.0 | 0.03 | 0.52 | 0.13 | 90 | 997.6 |
| 20260903150526 | 53 | 252 | 4.0 | 9.0 | 0.02 | 0.51 | 0.12 | 90 | 997.7 |
| 20260903150105 | 53 | 202 | 3.0 | 9.0 | 0.02 | 0.51 | 0.12 | 90 | 997.7 |
| 20260903145506 | 53 | 203 | 4.0 | 10.0 | 0.03 | 0.51 | 0.12 | 90 | 997.4 |
| 20260903145102 | 53 | 211 | 4.0 | 13.0 | 0.03 | 0.51 | 0.12 | 90 | 997.5 |
| 20260903144540 | 54 | 243 | 4.0 | 13.0 | 0.02 | 0.50 | 0.11 | 90 | 997.5 |
| 20260903144046 | 54 | 215 | 3.0 | 10.0 | 0.03 | 0.50 | 0.11 | 90 | 997.4 |
| 20260903143554 | 54 | 154 | 3.0 | 12.0 | 0.03 | 0.50 | 0.11 | 90 | 997.3 |
| 20260903143022 | 54 | 140 | 1.0 | 12.0 | 0.03 | 0.50 | 0.11 | 90 | 997.2 |
| 20260903142530 | 54 | 199 | 2.0 | 9.0 | 0.03 | 0.50 | 0.11 | 90 | 997.3 |
| 20260903142040 | 54 | 271 | 2.0 | 9.0 | 0.02 | 0.49 | 0.10 | 90 | 997.3 |
| 20260903141608 | 54 | 184 | 2.0 | 10.0 | 0.02 | 0.49 | 0.10 | 90 | 997.2 |
| 20260903141004 | 54 | 165 | 2.0 | 10.0 | 0.02 | 0.49 | 0.10 | 90 | 997.1 |
| 20260903140523 | 54 | 221 | 4.0 | 10.0 | 0.02 | 0.49 | 0.10 | 90 | 997.1 |
| 20260903140048 | 54 | 196 | 3.0 | 10.0 | 0.02 | 0.49 | 0.10 | 90 | 997.2 |
| 20260903135556 | 54 | 182 | 3.0 | 10.0 | 0.02 | 0.48 | 0.09 | 90 | 997.1 |
| 20260903135006 | 54 | 193 | 4.0 | 12.0 | 0.02 | 0.48 | 0.09 | 90 | 996.9 |
| 20260903134546 | 54 | 188 | 3.0 | 10.0 | 0.03 | 0.48 | 0.09 | 90 | 996.9 |
| 20260903134044 | 54 | 218 | 2.0 | 10.0 | 0.02 | 0.47 | 0.08 | 90 | 996.9 |
| 20260903133552 | 54 | 208 | 3.0 | 7.0 | 0.04 | 0.47 | 0.08 | 90 | 997.0 |
| 20260903133011 | 54 | 190 | 3.0 | 8.0 | 0.05 | 0.47 | 0.08 | 90 | 996.9 |
| 20260903132602 | 54 | 223 | 2.0 | 8.0 | 0.06 | 0.47 | 0.08 | 90 | 997.0 |
| 20260903132008 | 54 | 205 | 2.0 | 13.0 | 0.06 | 0.47 | 0.08 | 89 | 996.8 |
| 20260903131601 | 54 | 189 | 4.0 | 13.0 | 0.06 | 0.47 | 0.08 | 89 | 996.7 |
| 20260903131049 | 54 | 172 | 3.0 | 11.0 | 0.07 | 0.47 | 0.08 | 89 | 996.7 |
| 20260903130551 | 54 | 175 | 2.0 | 13.0 | 0.07 | 0.47 | 0.08 | 89 | 996.8 |
| 20260903130034 | 54 | 248 | 3.0 | 13.0 | 0.07 | 0.47 | 0.08 | 89 | 996.8 |
| 20260903125544 | 54 | 196 | 4.0 | 9.0 | 0.06 | 0.46 | 0.07 | 89 | 996.8 |
| 20260903125052 | 54 | 229 | 2.0 | 5.0 | 0.06 | 0.46 | 0.07 | 89 | 996.7 |
| 20260903124524 | 54 | 166 | 1.0 | 5.0 | 0.05 | 0.45 | 0.06 | 89 | 996.9 |
| 20260903124029 | 54 | 119 | 1.0 | 8.0 | 0.04 | 0.44 | 0.06 | 89 | 997.0 |
| 20260903123533 | 54 | 140 | 2.0 | 11.0 | 0.03 | 0.43 | 0.04 | 89 | 997.0 |
| 20260903123105 | 54 | 155 | 2.0 | 11.0 | 0.01 | 0.41 | 0.03 | 89 | 997.0 |
| 20260903122513 | 54 | 180 | 3.0 | 9.0 | 0.01 | 0.41 | 0.02 | 89 | 997.0 |
| 20260903122022 | 54 | 225 | 1.0 | 9.0 | 0.01 | 0.41 | 0.02 | 89 | 997.1 |
| 20260903121559 | 54 | 209 | 2.0 | 10.0 | 0.01 | 0.41 | 0.02 | 89 | 997.0 |
| 20260903121052 | 54 | 163 | 2.0 | 10.0 | 0.00 | 0.40 | 0.02 | 89 | 996.9 |
| 20260903120600 | 54 | 273 | 1.0 | 10.0 | 0.00 | 0.40 | 0.01 | 89 | 997.0 |
| 20260903120030 | 54 | 184 | 2.0 | 8.0 | 0.00 | 0.40 | 0.01 | 89 | 997.0 |
| 20260903115539 | 54 | 143 | 2.0 | 8.0 | 0.00 | 0.40 | 0.01 | 89 | 997.0 |
| 20260903115045 | 54 | 150 | 2.0 | 11.0 | 0.00 | 0.40 | 0.01 | 89 | 996.9 |
| 20260903114522 | 54 | 213 | 2.0 | 7.0 | 0.00 | 0.40 | 0.01 | 89 | 997.0 |
| 20260903114020 | 54 | 169 | 2.0 | 8.0 | 0.00 | 0.40 | 0.01 | 89 | 997.0 |
| 20260903113527 | 54 | 186 | 1.0 | 10.0 | 0.00 | 0.40 | 0.01 | 89 | 997.0 |
| 20260903113058 | 54 | 123 | 3.0 | 13.0 | 0.00 | 0.40 | 0.01 | 89 | 997.1 |
| 20260903112502 | 54 | 218 | 3.0 | 12.0 | 0.00 | 0.40 | 0.01 | 89 | 997.1 |
| 20260903112010 | 54 | 159 | 2.0 | 10.0 | 0.00 | 0.40 | 0.01 | 89 | 997.1 |
| 20260903111550 | 54 | 167 | 4.0 | 10.0 | 0.00 | 0.40 | 0.01 | 89 | 997.0 |
| 20260903111057 | 54 | 143 | 2.0 | 13.0 | 0.00 | 0.40 | 0.01 | 89 | 996.9 |
| 20260903110558 | 54 | 161 | 4.0 | 13.0 | 0.00 | 0.40 | 0.01 | 89 | 996.9 |
| 20260903110030 | 54 | 132 | 1.0 | 7.0 | 0.00 | 0.40 | 0.01 | 89 | 996.9 |
| 20260903105536 | 54 | 194 | 4.0 | 7.0 | 0.00 | 0.40 | 0.01 | 89 | 997.0 |
| 20260903105039 | 54 | 180 | 2.0 | 7.0 | 0.00 | 0.40 | 0.01 | 89 | 997.1 |
| 20260903104508 | 54 | 144 | 0.0 | 10.0 | 0.00 | 0.40 | 0.01 | 89 | 997.0 |
| 20260903104028 | 54 | 173 | 3.0 | 10.0 | 0.00 | 0.40 | 0.01 | 89 | 997.1 |
| 20260903103521 | 54 | 170 | 2.0 | 14.0 | 0.01 | 0.40 | 0.01 | 89 | 997.1 |
| 20260903103058 | 54 | 131 | 4.0 | 14.0 | 0.01 | 0.40 | 0.01 | 89 | 997.2 |
| 20260903102515 | 54 | 136 | 3.0 | 12.0 | 0.01 | 0.40 | 0.01 | 89 | 997.0 |
| 20260903102010 | 54 | 213 | 3.0 | 13.0 | 0.01 | 0.40 | 0.01 | 89 | 997.1 |
| 20260903101551 | 54 | 174 | 4.0 | 13.0 | 0.01 | 0.40 | 0.01 | 89 | 997.1 |
| 20260903101057 | 54 | 207 | 0.0 | 14.0 | 0.01 | 0.40 | 0.01 | 89 | 997.1 |
| 20260903100607 | 54 | 196 | 2.0 | 9.0 | 0.01 | 0.40 | 0.01 | 89 | 997.0 |
| 20260903100039 | 54 | 219 | 2.0 | 9.0 | 0.01 | 0.40 | 0.01 | 89 | 996.9 |
| 20260903095533 | 54 | 190 | 1.0 | 5.0 | 0.01 | 0.40 | 0.01 | 89 | 997.0 |
| 20260903095044 | 54 | 252 | 1.0 | 7.0 | 0.01 | 0.40 | 0.01 | 89 | 996.9 |
| 20260903094515 | 55 | 159 | 2.0 | 7.0 | 0.01 | 0.40 | 0.01 | 89 | 996.9 |
| 20260903094026 | 55 | 98 | 0.0 | 9.0 | 0.01 | 0.40 | 0.01 | 89 | 997.0 |
| 20260903093534 | 55 | 228 | 2.0 | 9.0 | 0.00 | 0.39 | 0.00 | 89 | 997.0 |
| 20260903093102 | 54 | 108 | 2.0 | 8.0 | 0.00 | 0.39 | 0.00 | 89 | 997.1 |
| 20260903092557 | 54 | 211 | 2.0 | 8.0 | 0.00 | 0.39 | 0.00 | 89 | 997.0 |
| 20260903092003 | 55 | 175 | 1.0 | 7.0 | 0.00 | 0.39 | 0.00 | 89 | 997.0 |
| 20260903091552 | 55 | 211 | 1.0 | 9.0 | 0.00 | 0.39 | 0.00 | 89 | 997.1 |
| 20260903091043 | 55 | 227 | 2.0 | 11.0 | 0.00 | 0.39 | 0.00 | 89 | 997.0 |
| 20260903090550 | 55 | 205 | 3.0 | 19.0 | 0.00 | 0.39 | 0.00 | 89 | 997.1 |
| 20260903090027 | 55 | 168 | 2.0 | 18.0 | 0.00 | 0.39 | 0.00 | 89 | 997.2 |
| 20260903085527 | 55 | 165 | 3.0 | 11.0 | 0.00 | 0.39 | 0.00 | 89 | 997.2 |
| 20260903085019 | 55 | 173 | 2.0 | 11.0 | 0.00 | 0.39 | 0.00 | 89 | 997.2 |
| 20260903084602 | 55 | 175 | 1.0 | 4.0 | 0.00 | 0.39 | 0.00 | 89 | 997.2 |
| 20260903084018 | 55 | 213 | 1.0 | 7.0 | 0.00 | 0.39 | 0.00 | 89 | 997.2 |
| 20260903083509 | 55 | 132 | 1.0 | 9.0 | 0.00 | 0.39 | 0.00 | 89 | 997.3 |
| 20260903083050 | 55 | 238 | 2.0 | 9.0 | 0.00 | 0.39 | 0.00 | 89 | 997.3 |
| 20260903082551 | 55 | 160 | 2.0 | 8.0 | 0.00 | 0.39 | 0.00 | 89 | 997.3 |
| 20260903082054 | 55 | 206 | 2.0 | 9.0 | 0.00 | 0.39 | 0.00 | 89 | 997.3 |
| 20260903081534 | 55 | 167 | 2.0 | 10.0 | 0.00 | 0.39 | 0.00 | 89 | 997.3 |
| 20260903081036 | 55 | 137 | 2.0 | 6.0 | 0.00 | 0.39 | 0.00 | 89 | 997.2 |
| 20260903080542 | 55 | 148 | 2.0 | 6.0 | 0.00 | 0.39 | 0.00 | 89 | 997.3 |
| 20260903080003 | 55 | 192 | 1.0 | 4.0 | 0.00 | 0.39 | 0.00 | 89 | 997.4 |
| 20260903075511 | 55 | 179 | 0.0 | 7.0 | 0.00 | 0.39 | 0.00 | 89 | 997.5 |
| 20260903075029 | 55 | 246 | 2.0 | 7.0 | 0.00 | 0.39 | 0.00 | 89 | 997.5 |
| 20260903074553 | 55 | 175 | 2.0 | 8.0 | 0.00 | 0.39 | 0.00 | 89 | 997.6 |
| 20260903074003 | 55 | 188 | 1.0 | 8.0 | 0.00 | 0.39 | 0.00 | 89 | 997.6 |
| 20260903073512 | 55 | 160 | 1.0 | 7.0 | 0.00 | 0.39 | 0.00 | 89 | 997.4 |
| 20260903072537 | 55 | 184 | 0.0 | 6.0 | 0.00 | 0.39 | 0.00 | 89 | 997.4 |
| 20260903072045 | 55 | 167 | 1.0 | 7.0 | 0.00 | 0.39 | 0.00 | 89 | 997.4 |